Location: Sabalos
(43.2860°N, 0.1414°E)
Time: 02:46:46
(UTC+00:00)

Cosmos 1943 Rocket - Visible Passes

Search period start: 23 October 2020 00:00
Search period end: 02 November 2020 00:00
Orbit: 814 x 842 km, 71.0° (Epoch: 22 October)

Date Brightness Start Highest point End Pass type
(mag) Time Alt. Az. Time Alt. Az. Time Alt. Az.
23 Oct 4.7 18:09:39 10° WNW 18:12:22 14° NW 18:15:04 10° NNW visible
24 Oct 4.6 17:49:53 10° W 17:53:01 15° NW 17:56:09 10° N visible
25 Oct 4.6 17:30:11 10° W 17:33:41 17° NW 17:37:11 10° N visible
